Location: Gleizolles
(44.4833°N, 6.7667°E)
Time: 12:52:26
(UTC+00:00)

Envisat - Pass Details

Date: 14 December 2021
Orbit: 764 x 766 km, 98.2° (Epoch: 28 January)

Event Time Altitude Azimuth Distance (km) Brightness Sun altitude
Rises 05:59:06 0° 359° (N) 3,244 6.0 -10.7°
Reaches altitude 10° 06:02:01 10° 342° (NNW) 2,312 5.1 -10.3°
Maximum altitude 06:05:30 19° 299° (WNW) 1,765 4.2 -9.7°
Drops below altitude 10° 06:08:59 10° 255° (WSW) 2,301 5.0 -9.1°
Sets 06:11:52 0° 238° (WSW) 3,222 5.9 -8.7°
